Weather in Mykolaivka

Ukraine / Dnipropetrovsk Region     48°37′51″N   34°04′57″E
temp.,
°C
wind,
m/s
gust,
m/s
humid.,
%
clouds,
%
prec.,
mm/h
press.,
hPa
HPBL,
m
15 may, sat
sat1500:00+13sw4108411 0.0 1010196
03:00+12ssw411837 0.0 1011202
06:00+12ssw5108479 0.0 1011199
09:00+18ssw58640 0.0 1012563
12:00+22ssw67490 0.0 10121895
15:00+23sw674476 0.0 10112362
18:00+21sw245593 0.0 1012396
21:00+16sw336833 0.0 101233
16 may, sun
sun1600:00+14wsw34761 0.0 101351
03:00+13ssw227888 0.0 101312
06:00+13wsw1181100 0.0 101313
09:00+18ene2366100 0.0 1013277
12:00+22ene3453100 0.0 1013857
15:00+24ene354772 0.0 10111616
18:00+23ne465599 0.0 1009604
21:00+17nne4117798 0.3 1008200
17 may, mon
mon1700:00+17ne51284100 0.3 1006350
03:00+16nnw3594100 1.4 1005108
06:00+15n359399 0.0 1003181
09:00+20e347214 0.0 1003419
12:00+23ese5558100 0.0 1003986
15:00+25sse68595 0.0 10021406
18:00+24s68624 0.0 10021315
21:00+18sse7128229 0.0 1004565
18 may, tue
tue1800:00+16s81281100 0.0 1004747
03:00+16ssw61088100 0.1 1004786
06:00+14ssw61092100 0.1 1005370
09:00+18s677695 0.1 1006585
12:00+21s8106536 2.0 1005864
15:00+20s9126699 3.6 10041267
18:00+19wsw6107354 3.3 10051159
21:00+15wsw5108896 3.8 1007331
19 may, wed
wed1900:00+12w510900 0.0 1009318
03:00+10wsw48910 0.0 1010167
06:00+10wsw369110 0.0 1011149
09:00+16sw56645 0.0 1012726
12:00+19w45485 0.0 10121520
15:00+20sw3552100 0.0 10111836
18:00+17w3462100 0.1 1011180
21:00+14sw3577100 1.1 101381